Погода в Ыбе

Россия / Республика Коми     62°14′41″N   50°28′05″E
темп.,
°C
ветер,
м/с
пор.,
м/с
влажн.,
%
обл.,
%
осадки,
мм/ч
давл.,
гПа
погр.,
м
5 декабря, вс
вс500:00−14св51293100 0.4 1004698
03:00−14св51291100 0.8 1006707
06:00−16св51292100 0.3 1008616
09:00−15ссв41189100 0.4 1011639
12:00−15ссв41091100 0.0 1014591
15:00−18с39915 0.0 1016218
18:00−25ссз22985 0.0 101913
21:00−26с1110066 0.0 10219
6 декабря, пн
пн600:00−22сз1110086 0.1 102211
03:00−18зсз129974 0.1 102340
06:00−20сз1110091 0.1 102414
09:00−21сз1110065 0.1 10269
12:00−17з26975 0.0 102696
15:00−22з229922 0.0 102721
18:00−21з24995 0.0 102849
21:00−20зюз2410073 0.0 102953
7 декабря, вт
вт700:00−19зюз269929 0.0 102972
03:00−18зюз289847 0.0 1030111
06:00−19зюз259926 0.0 103176
09:00−25юз2210093 0.0 103320
12:00−22юз13100100 0.0 103344
15:00−26ю1110094 0.0 10349
18:00−24юв2410088 0.0 103342
21:00−18юв3993100 0.0 1032150
8 декабря, ср
ср800:00−13юв31188100 0.0 1030285
03:00−11юв41493100 0.1 1028482
06:00−9юв51494100 0.6 1025584
09:00−9юв51393100 1.4 1023692
12:00−8юв41194100 0.8 1021697
15:00−8юв41095100 1.4 1019543
18:00−8вюв3995100 0.4 1019416
21:00−8вюв3795100 0.9 1018288
9 декабря, чт
чт900:00−8вюв2596100 0.4 1018204
03:00−8вюв119887 1.1 101916
06:00−13юз1110096 0.0 10209
09:00−17юз11100100 0.1 10229
12:00−15юз11100100 0.0 102324
15:00−11зюз1199100 0.1 102346
18:00−8сз1197100 0.3 102354
21:00−7ссз1297100 1.6 102295